Bradshaw AFB, HI

3:42 AM HST on May 30, 2017 (GMT -1000)
Bradshaw Army Air Field

Weather History for PHSF - December, 2013

Change the Weather History Date:

Saturday, December 7, 2013

  Actual Average Record
Temperature  
Mean Temperature 54 °F -  
Max Temperature 67 °F 64 °F 73 °F (2015)
Min Temperature 42 °F 43 °F 35 °F (2000)
Degree Days  
Heating Degree Days 10    
Growing Degree Days 4 (Base 50)    
Moisture  
Dew Point 49 °F    
Average Humidity 78    
Maximum Humidity 100    
Minimum Humidity 37    
Precipitation  
Precipitation 0.00 in - - ()
Sea Level Pressure  
Sea Level Pressure 30.28 in    
Wind  
Wind Speed 5 mph (West)    
Max Wind Speed 12 mph    
Max Gust Speed 21 mph    
Visibility 8 miles    
Events Fog , Rain    
Averages and records for this station are not official NWS values.
T = Trace of Precipitation, MM = Missing Value Source: NWS Daily Summary

Daily Weather History Graph

Daily Weather History Graph

Search for Another Location

Airport or City:

Trip Planner

Search our weather history database for the weather conditions in past years. The results will help you decide how hot, cold, wet, or windy it might be!

Date:

Astronomy

Dec. 07, 2013 Rise Set
Actual Time 6:44 AM HST 5:43 PM HST
Civil Twilight 6:20 AM HST 6:07 PM HST
Nautical Twilight 5:53 AM HST 6:34 PM HST
Astronomical Twilight 5:26 AM HST 7:01 PM HST
Moon 11:04 AM HST (12/7) 11:05 PM HST (12/7)
Length of Visible Light 11h 46m
Length of Day
10h 58m
Waxing Crescent, 31% of the Moon is Illuminated
Dec 7
Waxing Crescent
Dec 9
First Quarter
Dec 16
Full
Dec 25
Last Quarter
Jan 1
New

Hourly Weather History & Observations

Time (HST) Temp. Windchill Dew Point Humidity Pressure Visibility Wind Dir Wind Speed Gust Speed Precip Events Conditions
12:56 AM 48.7 °F - 41.7 °F 77% 30.25 in 12.0 mi SE 3.5 mph - N/A   Clear
1:56 AM 47.5 °F - 41.9 °F 81% 30.24 in 11.0 mi SE 3.5 mph - N/A   Partly Cloudy
2:56 AM 45.9 °F 44.6 °F 41.5 °F 85% 30.22 in 12.0 mi West 3.5 mph - N/A   Clear
3:56 AM 47.3 °F - 44.4 °F 90% 30.21 in 12.0 mi West 3.5 mph - N/A   Clear
4:56 AM 48.6 °F - 44.6 °F 86% 30.23 in 12.0 mi WNW 6.9 mph - N/A   Clear
5:56 AM 43.7 °F - 39.4 °F 85% 30.24 in 12.0 mi North 2.3 mph - N/A   Clear
6:56 AM 42.3 °F 38.6 °F 36.1 °F 79% 30.27 in 12.0 mi ESE 5.8 mph - N/A   Clear
7:56 AM 51.3 °F - 39.2 °F 63% 30.29 in 12.0 mi NNE 1.2 mph - N/A   Clear
8:56 AM 58.3 °F - 42.3 °F 55% 30.31 in 12.0 mi ESE 1.2 mph - N/A   Clear
9:56 AM 63.1 °F - 36.1 °F 37% 30.31 in 12.0 mi WSW 5.8 mph - N/A   Clear
10:56 AM 64.4 °F - 39.4 °F 40% 30.30 in 12.0 mi West 4.6 mph 12.7 mph N/A   Clear
11:56 AM 66.6 °F - 42.6 °F 42% 30.28 in 12.0 mi WSW 6.9 mph - N/A   Clear
12:56 PM 67.1 °F - 45.5 °F 46% 30.25 in 12.0 mi WSW 10.4 mph 16.1 mph N/A   Clear
1:56 PM 66.6 °F - 50.9 °F 57% 30.24 in 12.0 mi WSW 10.4 mph 20.7 mph N/A   Clear
2:41 PM 62.6 °F - 51.8 °F 68% 30.25 in 11.0 mi West 8.1 mph 18.4 mph N/A   Mostly Cloudy
2:51 PM 62.6 °F - 53.6 °F 72% 30.24 in 10.0 mi WSW 8.1 mph 16.1 mph N/A   Mostly Cloudy
2:56 PM 61.9 °F - 52.9 °F 72% 30.24 in 11.0 mi WSW 9.2 mph 16.1 mph N/A   Mostly Cloudy
3:36 PM 60.8 °F - 53.6 °F 77% 30.24 in 8.0 mi WSW 8.1 mph - N/A   Mostly Cloudy
3:51 PM 60.8 °F - 53.6 °F 77% 30.25 in 7.0 mi West 4.6 mph - N/A   Mostly Cloudy
3:56 PM 60.1 °F - 53.8 °F 80% 30.25 in 7.0 mi WSW 3.5 mph - N/A   Mostly Cloudy
4:06 PM 59.0 °F - 53.6 °F 82% 30.25 in 7.0 mi WSW 4.6 mph - N/A   Mostly Cloudy
4:16 PM 59.0 °F - 53.6 °F 82% 30.26 in 6.0 mi West 5.8 mph - N/A   Mostly Cloudy
4:56 PM 59.4 °F - 53.8 °F 82% 30.27 in 7.0 mi WSW 2.3 mph - N/A   Mostly Cloudy
5:16 PM 59.0 °F - 53.6 °F 82% 30.28 in 7.0 mi WSW 2.3 mph - N/A   Mostly Cloudy
5:21 PM 59.0 °F - 53.6 °F 82% 30.28 in 7.0 mi WNW 2.3 mph - N/A   Mostly Cloudy
5:26 PM 59.0 °F - 53.6 °F 82% 30.28 in 7.0 mi WNW 1.2 mph - N/A   Mostly Cloudy
5:36 PM 59.0 °F - 53.6 °F 82% 30.28 in 7.0 mi West 4.6 mph - N/A   Mostly Cloudy
5:56 PM 59.0 °F - 53.6 °F 82% 30.29 in 7.0 mi West 5.8 mph - N/A   Mostly Cloudy
6:16 PM 59.0 °F - 53.6 °F 82% 30.29 in 8.0 mi West 4.6 mph - N/A   Overcast
6:46 PM 59.0 °F - 53.6 °F 82% 30.30 in 8.0 mi WSW 5.8 mph - N/A   Mostly Cloudy
6:56 PM 59.0 °F - 51.3 °F 75% 30.31 in 9.0 mi ESE 9.2 mph 13.8 mph N/A   Mostly Cloudy
7:56 PM 61.5 °F - 48.4 °F 62% 30.30 in 12.0 mi SE 11.5 mph 19.6 mph N/A   Partly Cloudy
8:56 PM 56.8 °F - 53.2 °F 88% 30.33 in 8.0 mi West 6.9 mph - N/A   Mostly Cloudy
9:56 PM 56.1 °F - 53.1 °F 89% 30.35 in 6.0 mi WSW 2.3 mph - N/A   Mostly Cloudy
10:31 PM 53.6 °F - 53.6 °F 100% 30.33 in 4.0 mi West 4.6 mph - N/A   Mostly Cloudy
10:36 PM 53.6 °F - 53.6 °F 100% 30.33 in 4.0 mi WSW 6.9 mph - N/A   Mostly Cloudy
10:46 PM 53.6 °F - 53.6 °F 100% 30.33 in 4.0 mi West 4.6 mph - N/A   Scattered Clouds
10:56 PM 54.3 °F - 52.3 °F 93% 30.33 in 5.0 mi West 2.3 mph - N/A   Partly Cloudy
11:41 PM 53.6 °F - 51.8 °F 94% 30.33 in 2.2 mi West 6.9 mph - N/A   Partly Cloudy
11:45 PM 53.6 °F - 51.8 °F 94% 30.34 in 2.2 mi NNW 2.3 mph - N/A   Light Drizzle
11:50 PM 53.6 °F - 51.8 °F 94% 30.33 in 1.5 mi West 5.8 mph - N/A Rain Light Rain Showers
11:55 PM 53.6 °F - 51.8 °F 94% 30.34 in 0.8 mi WNW 4.6 mph - N/A Rain Light Rain Showers
11:56 PM 53.2 °F - 52.5 °F 97% 30.33 in 0.6 mi WNW 4.6 mph - N/A Fog , Rain Light Rain Showers